SCP
0 0 0 0 0 0 0 0 0 0 0 0 0 0 0 0 0 0 0 0 0 0 0 0 0 0 0 0 0 0 0 0 0 0 0 0 0 0 0 0 0 0 0
0 0 0 0 0 0 0 0 0 0 0 0 0 0 0 0 0 0 0 0 0 0 0 0 0 0 0 0 0 0 0 0 0 0 0 0 0 0 0 0 0 0 0
0 0 0 0 0 0 0 0 0 0 0 0 0 0 0 0 0 0 0 0 0 0 0 0 0 0 0 0 0 0 0 0 0 0 0 0 0 0 0 0 0 0 0
0 0 0 0 0 0 0 0 0 0 0 0 0 0 0 0 0 0 0 0 0 0 0 0 0 0 0 0 0 0 0 0 0 0 0 0 0 0 0 0 0 0 0
0 0 0 0 0 0 0 0 0 0 0 0 0 0 0 0 0 0 0 0 0 0 0 0 0 0 0 0 0 0 0 0 0 0 0 0 0 0 0 0 0 0 0
0 0 0 0 0 0 0 0 0 0 0 0 0 0 0 0 0 0 0 0 0 0 0 0 0 0 0 0 -0 -0 -0 0 0 0 0 0 0 0 0 0 0 0 0
0 0 0 0 0 0 0 0 0 0 0 0 0 0 0 0 0 0 0 0 0 0 0 0 0 0 0 0 0 -0 -0 -0 -0 0 0 0 0 0 0 0 0 0 0
0 0 0 0 0 0 0 0 0 0 0 0 0 0 0 0 0 0 0 0 0 0 0 0 0 0 0 0 0 0 0 0 0 0 0 0 0 0 0 0 0 0 0
0 0 0 0 0 0 0 0 0 0 0 0 0 0 0 0 0 0 0 0 0 0 0 0 0 0 0 -0 -0 -0 0 0 0 0 0 0 0 -0 0 0 0 0 0
0 0 0 0 0 0 0 0 0 0 0 0 0 0 0 0 0 0 0 0 0 0 0 0 0 0 -0 0 -0 -0 0 0 0 0 0 0 0 0 0 0 0 0 0
0 0 0 0 0 0 0 0 0 0 0 0 0 0 0 0 0 0 0 0 0 0 0 0 0 0 0 -0 0 0 0 0 0 0 0 0 0 0 0 0 0 0 0
0 0 0 0 0 0 0 0 0 0 0 0 0 0 0 0 0 0 0 0 0 0 0 0 0 0 0 0 -0 0 0 0 0 0 0 0 0 -0 0 0 0 0 -0
0 0 0 0 0 0 0 0 0 0 0 0 0 0 0 0 0 0 0 0 0 0 0 0 0 0 0 0 0 0 0 0 0 0 0 0 -0 -0 -0 -0 0 0 0
0 0 0 0 0 0 0 0 0 0 0 0 0 0 0 0 0 0 0 0 0 0 0 0 0 0 0 0 0 0 0 0 0 0 0 -0 -0 -0 -0 0 0 0 0
0 0 0 0 0 0 0 0 0 0 0 0 0 0 0 0 0 0 0 0 0 0 0 0 0 0 0 0 0 0 0 0 0 -0 -0 -0 0 0 0 0 0 -0 -0
0 0 0 0 0 -0 0 0 0 0 0 0 0 0 0 0 0 0 0 -0 -0 0 0 0 0 0 0 0 0 0 0 -0 -0 0 -0 0 0 0 0 0 0 0 0
0 0 0 0 -0 -0 -0 -0 -0 0 0 0 0 0 0 0 0 0 0 -0 0 0 0 0 0 0 0 0 0 0 -0 -0 -0 -0 -0 0 0 0 0 0 0 -0 0
0 0 -0 -0 -0 -0 -0 -0 -0 -0 -0 -0 0 -0 0 0 0 0 0 0 0 0 0 0 0 0 0 0 0 -0 -0 -0 0 -0 -0 -0 0 -0 -0 -0 0 0 0
-0 -0 -0 -0 -0 -0 -0 -0 -0 -0 -0 -0 0 0 0 0 0 0 0 0 0 0 0 0 0 0 0 0 0 -0 -0 -0 0 0 -0 0 -0 -0 -0 0 0 0 0
0 0 0 0 0 -0 -0 0 -0 -0 -0 0 0 0 0 0 0 0 0 0 0 0 0 0 0 0 0 0 0 0 -0 -0 0 0 0 0 -0 0 0 0 0 0 0
0 0 0 0 0 -0 0 0 -0 -0 -0 0 0 0 0 0 0 0 0 0 0 0 0 0 0 0 0 0 -0 0 0 -0 0 0 0 -0 -0 -0 -0 0 0 0 0
0 0 0 0 0 0 0 0 0 -0 0 0 0 0 0 0 0 0 0 0 0 0 0 0 0 0 0 0 -0 0 0 0 0 0 0 0 -0 0 0 0 0 0 0
0 0 0 0 0 0 0 0 0 0 0 0 0 0 0 0 0 0 0 0 0 0 0 0 0 0 0 0 -0 -0 0 -0 -0 0 0 -0 -0 0 0 0 0 0 0
0 0 0 0 0 0 0 0 0 0 0 0 0 0 0 0 0 0 0 0 0 0 0 0 0 0 0 0 -0 -0 0 0 0 0 -0 -0 -0 0 0 0 0 0 0
0 0 0 0 0 0 0 0 0 0 0 0 0 0 0 0 0 0 0 0 0 0 0 0 0 0 -0 -0 -0 -0 0 0 0 -0 -0 -0 -0 -0 0 0 0 0 0
0 0 0 0 0 0 0 0 0 0 0 0 0 0 0 0 0 0 0 0 0 0 0 0 0 -0 -0 -0 -0 -0 0 0 0 -0 0 -0 -0 0 0 0 0 0 0
Wind_Speed_500mb
26 21 18 15 14 17 21 22 22 24 28 29 31 32 33 33 31 33 36 38 39 40 40 42 46 44 45 45 45 48 52 52 64 88 53 51 57 57 56 54 52 50 49
20 16 14 14 16 18 17 19 25 28 30 30 32 33 30 32 35 35 38 39 42 45 45 46 48 46 49 49 50 53 54 54 60 71 60 56 53 49 49 50 48 47 51
17 14 13 14 15 15 18 24 27 26 23 25 28 28 32 36 38 38 40 43 45 47 47 49 51 50 55 54 54 55 55 57 57 58 60 48 48 46 49 49 47 48 47
13 11 12 11 15 19 22 25 26 25 24 23 27 31 36 37 39 41 41 42 44 46 48 51 53 54 56 55 54 56 56 57 57 62 63 66 51 49 48 47 50 46 46
10 10 11 14 17 21 24 24 25 26 25 27 31 32 34 37 38 39 41 46 51 54 54 53 53 54 56 59 62 62 67 63 57 59 62 65 62 58 50 43 45 41 39
10 7 12 17 22 22 23 23 21 25 26 28 33 37 38 39 45 52 55 52 52 51 54 58 60 55 57 58 57 56 55 56 54 49 54 62 44 49 43 40 40 43 44
5 10 17 19 19 19 24 28 30 27 30 35 38 39 41 40 50 55 53 47 49 50 58 53 54 49 50 47 49 49 52 52 50 51 53 53 53 45 44 42 44 41 46
10 13 15 16 21 26 28 29 28 29 33 36 39 40 43 48 51 52 49 42 45 46 52 48 52 48 48 47 50 54 53 51 51 54 50 52 48 47 49 51 53 54 57
7 9 13 21 24 26 29 27 27 30 34 38 39 44 45 47 47 47 41 40 43 47 45 46 45 48 50 52 52 59 60 57 50 46 49 53 57 59 51 57 64 62 61
11 17 23 25 27 27 25 28 34 37 38 40 43 41 43 45 42 40 36 42 45 45 42 39 44 52 43 45 47 52 52 60 56 49 40 45 47 48 49 54 68 73 69
20 22 24 27 29 31 35 33 36 35 40 39 40 40 38 37 40 35 41 41 42 46 51 53 48 47 42 49 50 57 58 42 43 51 51 49 46 51 54 44 46 54 68
19 21 24 25 30 34 32 29 29 32 36 38 37 36 37 33 43 40 39 39 39 45 50 48 40 43 46 50 53 51 48 51 56 56 50 41 43 45 36 27 32 32 45
19 17 19 26 26 26 27 29 30 31 33 35 35 44 42 43 43 36 36 35 46 44 45 44 48 48 49 53 49 48 46 45 39 41 40 42 42 35 42 38 34 32 32
13 17 22 25 31 25 26 26 28 30 32 35 39 46 44 47 40 36 39 53 46 50 47 49 53 51 48 40 38 33 30 30 32 35 36 33 33 37 44 41 41 38 37
16 21 25 26 24 24 24 27 30 29 32 36 40 43 44 41 39 43 47 45 48 46 49 49 48 39 36 35 31 33 33 31 32 33 36 36 34 35 39 40 40 43 41
19 23 24 22 23 23 27 28 30 37 34 27 36 33 37 38 39 42 41 47 47 46 46 40 35 35 35 37 36 38 32 33 34 34 33 35 37 37 37 31 31 38 43
24 20 21 22 23 25 27 32 41 41 32 30 30 33 36 35 37 40 44 46 42 35 32 35 35 37 39 41 39 38 36 33 32 35 35 33 36 37 33 35 40 46 52
22 25 24 23 25 26 31 33 33 35 39 38 37 35 35 36 40 42 42 39 33 31 31 36 39 39 41 40 37 40 36 32 31 33 33 34 35 34 38 42 48 57 61
27 26 26 24 25 33 31 31 30 35 39 40 47 37 37 38 41 37 35 34 39 39 38 40 41 42 42 42 40 39 36 34 32 33 34 35 34 34 41 49 56 62 58
25 28 29 26 27 30 32 31 33 37 40 43 44 43 46 51 44 42 39 39 40 42 44 43 43 42 41 40 40 37 34 34 34 32 35 33 30 35 43 52 61 64 57
27 28 30 26 26 33 30 34 33 40 42 45 44 40 40 48 42 44 47 43 44 45 45 45 45 43 40 40 39 35 33 33 32 32 32 29 29 36 39 51 62 52 39
28 29 29 28 32 29 34 35 38 40 40 44 45 40 41 40 43 46 47 46 46 45 44 44 45 46 42 40 37 35 32 32 32 32 29 26 28 33 39 49 57 35 26
29 30 28 27 29 34 38 36 41 38 40 42 45 44 46 46 48 51 50 50 50 50 49 48 48 48 42 39 37 34 31 32 32 30 26 23 26 30 40 46 49 44 17
30 30 30 28 31 38 42 41 40 38 42 43 43 47 46 47 50 53 54 54 54 56 55 54 50 46 40 38 35 32 29 29 28 24 20 17 24 30 40 45 44 49 16
30 29 30 29 38 42 47 40 42 43 45 46 45 49 49 52 53 54 55 56 58 61 62 54 48 43 38 35 31 29 24 27 23 22 20 15 23 29 39 44 46 41 37
30 30 31 33 40 43 43 42 43 45 46 48 51 52 53 54 55 58 61 64 66 66 59 52 45 38 33 30 24 21 20 22 20 23 14 9 17 29 39 46 39 42 23
Wind_Direction_500mb
182 189 198 207 227 247 257 265 273 283 287 286 286 286 286 285 285 286 286 285 283 283 281 280 279 277 274 272 271 270 270 268 269 278 282 278 276 274 275 275 273 270 267
180 186 206 231 247 260 270 276 283 284 290 290 288 286 286 289 290 288 286 285 284 283 282 280 278 278 273 272 272 272 270 270 269 274 280 279 278 278 276 273 271 266 264
183 203 228 249 260 264 275 285 290 291 286 286 290 290 291 291 288 286 285 286 285 283 282 280 279 277 275 274 273 272 271 270 268 269 274 278 277 276 275 271 269 269 264
200 226 243 257 276 284 291 294 291 287 286 283 288 291 293 292 290 291 290 289 288 287 285 283 281 279 277 276 275 273 271 269 263 259 270 274 275 275 270 269 268 267 270
226 244 263 282 295 302 298 294 292 290 285 287 293 295 295 293 293 290 291 291 290 289 286 284 282 279 276 273 270 268 271 279 278 276 277 279 284 275 271 272 270 271 265
244 250 288 303 303 299 295 294 286 289 289 293 297 298 298 296 292 298 298 294 291 290 286 282 286 280 278 280 278 276 276 276 279 274 278 271 273 275 273 269 267 271 272
212 278 296 296 300 296 297 299 299 293 293 297 299 299 297 293 296 300 298 294 289 286 289 290 287 285 281 279 279 278 278 278 276 276 275 271 274 270 269 266 268 265 264
281 294 297 303 306 306 304 301 297 293 295 299 300 300 299 300 301 302 299 295 291 293 290 288 283 282 283 279 279 277 280 277 274 271 271 269 266 266 264 266 266 267 265
286 289 297 304 306 307 307 302 298 297 298 300 299 301 302 300 299 304 299 295 292 296 293 286 286 284 286 282 283 281 280 286 285 281 276 273 274 270 269 275 272 271 262
291 293 297 304 309 311 307 305 302 303 302 303 303 303 301 302 302 303 303 297 297 299 298 293 286 294 291 288 289 286 282 280 280 288 277 278 277 274 273 270 266 263 260
295 297 304 308 308 306 306 307 305 306 306 305 303 305 306 305 300 301 305 304 300 299 297 302 302 298 296 297 285 283 279 283 289 286 280 276 273 273 273 274 277 263 245
306 307 306 306 307 310 307 307 306 306 305 306 306 309 307 300 310 310 303 302 301 298 298 299 300 300 295 297 297 292 290 292 285 282 280 268 271 275 275 273 281 256 246
313 314 314 312 311 311 309 306 307 307 306 307 307 312 314 309 315 311 306 303 308 305 302 301 300 290 298 297 293 292 290 286 280 272 270 272 271 263 266 266 272 268 268
315 313 316 316 311 311 308 307 308 310 309 305 311 311 310 313 314 314 310 319 317 311 309 303 304 299 299 297 297 297 292 283 280 270 272 276 274 272 272 270 274 269 266
313 316 318 317 313 314 310 311 313 312 305 308 302 305 309 309 310 312 313 312 311 311 307 302 302 300 301 296 298 297 292 281 284 278 273 274 273 273 271 275 275 276 257
319 320 318 323 320 318 317 321 316 316 318 302 309 307 306 304 308 311 310 308 311 308 307 302 301 301 297 306 287 300 292 285 280 283 279 271 273 275 278 276 272 270 268
327 327 322 326 322 320 325 323 321 328 322 323 318 315 313 309 310 312 313 312 310 312 306 306 304 304 302 305 299 298 291 289 280 278 281 272 273 275 277 278 279 279 279
333 329 334 326 324 325 324 320 321 322 324 326 327 326 323 320 320 317 316 316 313 315 311 309 308 308 308 305 300 300 292 289 281 277 277 277 278 274 280 284 289 291 291
331 332 332 325 326 329 325 321 321 321 324 322 327 333 328 331 329 321 321 318 317 316 316 312 313 311 309 305 301 296 291 286 279 277 276 276 273 278 286 293 303 306 303
332 335 336 331 330 329 327 328 327 325 326 325 327 324 332 334 326 326 326 323 321 320 318 314 313 311 309 306 300 295 288 287 279 274 273 268 272 281 294 308 315 317 313
339 337 337 336 331 334 332 324 327 324 324 326 326 322 320 322 328 327 325 326 323 320 317 314 313 314 312 307 301 294 287 281 279 271 268 268 276 289 306 318 326 330 333
344 340 339 337 337 335 328 327 328 331 325 325 326 322 323 325 325 325 324 323 321 319 317 314 311 315 314 307 299 293 288 278 273 268 256 266 284 302 319 330 338 340 329
346 344 342 338 339 338 340 338 329 332 330 329 328 327 327 325 325 323 325 325 324 323 324 322 319 317 313 304 296 289 284 280 275 258 250 268 293 311 324 335 338 341 318
352 351 347 343 341 342 343 335 334 332 331 331 333 334 332 329 327 324 326 327 326 327 328 325 321 316 309 300 291 283 274 274 268 245 236 267 294 317 324 334 340 339 303
357 355 351 346 346 346 346 342 338 341 340 336 333 336 336 334 332 331 331 331 329 329 329 324 319 314 307 296 286 277 263 263 253 211 216 258 296 322 326 335 335 341 280
2 359 354 350 350 351 348 343 343 342 341 342 340 339 336 333 334 335 336 336 335 333 331 327 322 313 301 292 281 264 250 253 213 198 202 259 310 324 328 329 335 338 340
Wind_Speed_850mb
26 21 18 15 14 17 21 22 22 24 28 29 31 32 33 33 31 33 36 38 39 40 40 42 46 44 45 45 45 48 52 52 64 88 53 51 57 57 56 54 52 50 49
20 16 14 14 16 18 17 19 25 28 30 30 32 33 30 32 35 35 38 39 42 45 45 46 48 46 49 49 50 53 54 54 60 71 60 56 53 49 49 50 48 47 51
17 14 13 14 15 15 18 24 27 26 23 25 28 28 32 36 38 38 40 43 45 47 47 49 51 50 55 54 54 55 55 57 57 58 60 48 48 46 49 49 47 48 47
13 11 12 11 15 19 22 25 26 25 24 23 27 31 36 37 39 41 41 42 44 46 48 51 53 54 56 55 54 56 56 57 57 62 63 66 51 49 48 47 50 46 46
10 10 11 14 17 21 24 24 25 26 25 27 31 32 34 37 38 39 41 46 51 54 54 53 53 54 56 59 62 62 67 63 57 59 62 65 62 58 50 43 45 41 39
10 7 12 17 22 22 23 23 21 25 26 28 33 37 38 39 45 52 55 52 52 51 54 58 60 55 57 58 57 56 55 56 54 49 54 62 44 49 43 40 40 43 44
5 10 17 19 19 19 24 28 30 27 30 35 38 39 41 40 50 55 53 47 49 50 58 53 54 49 50 47 49 49 52 52 50 51 53 53 53 45 44 42 44 41 46
10 13 15 16 21 26 28 29 28 29 33 36 39 40 43 48 51 52 49 42 45 46 52 48 52 48 48 47 50 54 53 51 51 54 50 52 48 47 49 51 53 54 57
7 9 13 21 24 26 29 27 27 30 34 38 39 44 45 47 47 47 41 40 43 47 45 46 45 48 50 52 52 59 60 57 50 46 49 53 57 59 51 57 64 62 61
11 17 23 25 27 27 25 28 34 37 38 40 43 41 43 45 42 40 36 42 45 45 42 39 44 52 43 45 47 52 52 60 56 49 40 45 47 48 49 54 68 73 69
20 22 24 27 29 31 35 33 36 35 40 39 40 40 38 37 40 35 41 41 42 46 51 53 48 47 42 49 50 57 58 42 43 51 51 49 46 51 54 44 46 54 68
19 21 24 25 30 34 32 29 29 32 36 38 37 36 37 33 43 40 39 39 39 45 50 48 40 43 46 50 53 51 48 51 56 56 50 41 43 45 36 27 32 32 45
19 17 19 26 26 26 27 29 30 31 33 35 35 44 42 43 43 36 36 35 46 44 45 44 48 48 49 53 49 48 46 45 39 41 40 42 42 35 42 38 34 32 32
13 17 22 25 31 25 26 26 28 30 32 35 39 46 44 47 40 36 39 53 46 50 47 49 53 51 48 40 38 33 30 30 32 35 36 33 33 37 44 41 41 38 37
16 21 25 26 24 24 24 27 30 29 32 36 40 43 44 41 39 43 47 45 48 46 49 49 48 39 36 35 31 33 33 31 32 33 36 36 34 35 39 40 40 43 41
19 23 24 22 23 23 27 28 30 37 34 27 36 33 37 38 39 42 41 47 47 46 46 40 35 35 35 37 36 38 32 33 34 34 33 35 37 37 37 31 31 38 43
24 20 21 22 23 25 27 32 41 41 32 30 30 33 36 35 37 40 44 46 42 35 32 35 35 37 39 41 39 38 36 33 32 35 35 33 36 37 33 35 40 46 52
22 25 24 23 25 26 31 33 33 35 39 38 37 35 35 36 40 42 42 39 33 31 31 36 39 39 41 40 37 40 36 32 31 33 33 34 35 34 38 42 48 57 61
27 26 26 24 25 33 31 31 30 35 39 40 47 37 37 38 41 37 35 34 39 39 38 40 41 42 42 42 40 39 36 34 32 33 34 35 34 34 41 49 56 62 58
25 28 29 26 27 30 32 31 33 37 40 43 44 43 46 51 44 42 39 39 40 42 44 43 43 42 41 40 40 37 34 34 34 32 35 33 30 35 43 52 61 64 57
27 28 30 26 26 33 30 34 33 40 42 45 44 40 40 48 42 44 47 43 44 45 45 45 45 43 40 40 39 35 33 33 32 32 32 29 29 36 39 51 62 52 39
28 29 29 28 32 29 34 35 38 40 40 44 45 40 41 40 43 46 47 46 46 45 44 44 45 46 42 40 37 35 32 32 32 32 29 26 28 33 39 49 57 35 26
29 30 28 27 29 34 38 36 41 38 40 42 45 44 46 46 48 51 50 50 50 50 49 48 48 48 42 39 37 34 31 32 32 30 26 23 26 30 40 46 49 44 17
30 30 30 28 31 38 42 41 40 38 42 43 43 47 46 47 50 53 54 54 54 56 55 54 50 46 40 38 35 32 29 29 28 24 20 17 24 30 40 45 44 49 16
30 29 30 29 38 42 47 40 42 43 45 46 45 49 49 52 53 54 55 56 58 61 62 54 48 43 38 35 31 29 24 27 23 22 20 15 23 29 39 44 46 41 37
30 30 31 33 40 43 43 42 43 45 46 48 51 52 53 54 55 58 61 64 66 66 59 52 45 38 33 30 24 21 20 22 20 23 14 9 17 29 39 46 39 42 23
Wind_Direction_850mb
182 189 198 207 227 247 257 265 273 283 287 286 286 286 286 285 285 286 286 285 283 283 281 280 279 277 274 272 271 270 270 268 269 278 282 278 276 274 275 275 273 270 267
180 186 206 231 247 260 270 276 283 284 290 290 288 286 286 289 290 288 286 285 284 283 282 280 278 278 273 272 272 272 270 270 269 274 280 279 278 278 276 273 271 266 264
183 203 228 249 260 264 275 285 290 291 286 286 290 290 291 291 288 286 285 286 285 283 282 280 279 277 275 274 273 272 271 270 268 269 274 278 277 276 275 271 269 269 264
200 226 243 257 276 284 291 294 291 287 286 283 288 291 293 292 290 291 290 289 288 287 285 283 281 279 277 276 275 273 271 269 263 259 270 274 275 275 270 269 268 267 270
226 244 263 282 295 302 298 294 292 290 285 287 293 295 295 293 293 290 291 291 290 289 286 284 282 279 276 273 270 268 271 279 278 276 277 279 284 275 271 272 270 271 265
244 250 288 303 303 299 295 294 286 289 289 293 297 298 298 296 292 298 298 294 291 290 286 282 286 280 278 280 278 276 276 276 279 274 278 271 273 275 273 269 267 271 272
212 278 296 296 300 296 297 299 299 293 293 297 299 299 297 293 296 300 298 294 289 286 289 290 287 285 281 279 279 278 278 278 276 276 275 271 274 270 269 266 268 265 264
281 294 297 303 306 306 304 301 297 293 295 299 300 300 299 300 301 302 299 295 291 293 290 288 283 282 283 279 279 277 280 277 274 271 271 269 266 266 264 266 266 267 265
286 289 297 304 306 307 307 302 298 297 298 300 299 301 302 300 299 304 299 295 292 296 293 286 286 284 286 282 283 281 280 286 285 281 276 273 274 270 269 275 272 271 262
291 293 297 304 309 311 307 305 302 303 302 303 303 303 301 302 302 303 303 297 297 299 298 293 286 294 291 288 289 286 282 280 280 288 277 278 277 274 273 270 266 263 260
295 297 304 308 308 306 306 307 305 306 306 305 303 305 306 305 300 301 305 304 300 299 297 302 302 298 296 297 285 283 279 283 289 286 280 276 273 273 273 274 277 263 245
306 307 306 306 307 310 307 307 306 306 305 306 306 309 307 300 310 310 303 302 301 298 298 299 300 300 295 297 297 292 290 292 285 282 280 268 271 275 275 273 281 256 246
313 314 314 312 311 311 309 306 307 307 306 307 307 312 314 309 315 311 306 303 308 305 302 301 300 290 298 297 293 292 290 286 280 272 270 272 271 263 266 266 272 268 268
315 313 316 316 311 311 308 307 308 310 309 305 311 311 310 313 314 314 310 319 317 311 309 303 304 299 299 297 297 297 292 283 280 270 272 276 274 272 272 270 274 269 266
313 316 318 317 313 314 310 311 313 312 305 308 302 305 309 309 310 312 313 312 311 311 307 302 302 300 301 296 298 297 292 281 284 278 273 274 273 273 271 275 275 276 257
319 320 318 323 320 318 317 321 316 316 318 302 309 307 306 304 308 311 310 308 311 308 307 302 301 301 297 306 287 300 292 285 280 283 279 271 273 275 278 276 272 270 268
327 327 322 326 322 320 325 323 321 328 322 323 318 315 313 309 310 312 313 312 310 312 306 306 304 304 302 305 299 298 291 289 280 278 281 272 273 275 277 278 279 279 279
333 329 334 326 324 325 324 320 321 322 324 326 327 326 323 320 320 317 316 316 313 315 311 309 308 308 308 305 300 300 292 289 281 277 277 277 278 274 280 284 289 291 291
331 332 332 325 326 329 325 321 321 321 324 322 327 333 328 331 329 321 321 318 317 316 316 312 313 311 309 305 301 296 291 286 279 277 276 276 273 278 286 293 303 306 303
332 335 336 331 330 329 327 328 327 325 326 325 327 324 332 334 326 326 326 323 321 320 318 314 313 311 309 306 300 295 288 287 279 274 273 268 272 281 294 308 315 317 313
339 337 337 336 331 334 332 324 327 324 324 326 326 322 320 322 328 327 325 326 323 320 317 314 313 314 312 307 301 294 287 281 279 271 268 268 276 289 306 318 326 330 333
344 340 339 337 337 335 328 327 328 331 325 325 326 322 323 325 325 325 324 323 321 319 317 314 311 315 314 307 299 293 288 278 273 268 256 266 284 302 319 330 338 340 329
346 344 342 338 339 338 340 338 329 332 330 329 328 327 327 325 325 323 325 325 324 323 324 322 319 317 313 304 296 289 284 280 275 258 250 268 293 311 324 335 338 341 318
352 351 347 343 341 342 343 335 334 332 331 331 333 334 332 329 327 324 326 327 326 327 328 325 321 316 309 300 291 283 274 274 268 245 236 267 294 317 324 334 340 339 303
357 355 351 346 346 346 346 342 338 341 340 336 333 336 336 334 332 331 331 331 329 329 329 324 319 314 307 296 286 277 263 263 253 211 216 258 296 322 326 335 335 341 280
2 359 354 350 350 351 348 343 343 342 341 342 340 339 336 333 334 335 336 336 335 333 331 327 322 313 301 292 281 264 250 253 213 198 202 259 310 324 328 329 335 338 340